ギブス彗星

341P/Gibbs (2016)

English version
Home page
Updated on March 25, 2017

---------------------------------------------------------------------

・ プロフィール

符号 341P/2016 N3
検出日 2016年7月15日
検出光度 17.8等
検出者 D. C. Fuls (Catalina Sky Survey)

・ 写真集

・ 軌道要素

Epoch 2016 May 12.0 TT = JDT 2457520.5
T 2016 May 26.83098 TT                                  MPCW
q   2.5208772            (2000.0)            P               Q
n   0.11051771     Peri.  312.19656     +0.95164240     +0.30541456
a   4.3004589      Node    30.06469     -0.25874905     +0.85501490
e   0.4138120      Incl.    3.79367     -0.16560697     +0.41913180
P   8.92
From 174 observations 2007 Sept. 10-2016 Dec. 7, mean residual 0".7.

・ 光度変化

        m1 = 12.5 + 5 logΔ + 10.0 log r

---------------------------------------------------------------------

軌道要素はM.P.E.C. 2017-E59に掲載されたものです。
光度グラフはComet for Windowsで作成したものです。

---------------------------------------------------------------------

Copyright(C) Seiichi Yoshida (comet@aerith.net). All rights reserved.